FW5486 Weather Reports


time (UTC)temp
F
wind
direction
speed
knots
gust
knots
rain 1hr
in
rain 24hr
in
rain mn
in
humidity
%
barometer
mb
20260903120051 76 117 0.0 1.7 0.00 0.09 0.00 95 1016.9
20260903114931 76 117 0.9 1.7 0.00 0.09 0.00 95 1016.9
20260903114430 76 117 0.9 1.7 0.00 0.09 0.00 95 1016.8
20260903113928 76 117 0.9 1.7 0.00 0.09 0.00 95 1016.7
20260903113428 76 117 0.9 1.7 0.00 0.09 0.00 95 1016.7
20260903112924 76 117 0.0 1.7 0.00 0.09 0.00 95 1016.8
20260903112423 76 117 0.0 1.7 0.00 0.09 0.00 95 1016.8
20260903111925 76 117 0.0 1.7 0.00 0.09 0.00 94 1016.7
20260903111424 76 117 0.0 1.7 0.00 0.09 0.00 94 1016.6
20260903110923 76 117 0.0 1.7 0.00 0.09 0.00 94 1016.6
20260903110709 76 117 0.0 1.7 0.00 0.09 0.00 95 1016.6
20260903105917 76 117 0.0 1.7 0.00 0.09 0.00 95 1016.6
20260903105415 76 117 0.0 1.7 0.00 0.09 0.00 94 1016.4
20260903104913 76 117 0.9 1.7 0.00 0.09 0.00 94 1016.4
20260903104410 76 117 0.9 0.9 0.00 0.09 0.00 94 1016.4
20260903103912 76 117 0.0 0.9 0.00 0.09 0.00 94 1016.4
20260903103636 76 117 0.9 1.7 0.00 0.09 0.00 94 1016.3
20260903102903 76 117 0.9 1.7 0.00 0.09 0.00 94 1016.2
20260903102400 76 117 0.9 1.7 0.00 0.09 0.00 94 1016.2
20260903101858 76 117 0.9 1.7 0.00 0.09 0.00 94 1016.2
20260903101359 76 117 0.9 1.7 0.00 0.09 0.00 94 1016.1
20260903101124 76 117 0.9 1.7 0.00 0.09 0.00 94 1016.1
20260903100349 76 117 0.9 1.7 0.00 0.09 0.00 94 1016.0
20260903095848 76 117 0.0 1.7 0.00 0.09 0.00 94 1016.0
20260903095347 76 129 0.0 0.9 0.00 0.09 0.00 94 1016.0
20260903095119 76 129 0.0 1.7 0.00 0.09 0.00 94 1016.0
20260903094344 76 129 0.0 1.7 0.00 0.09 0.00 94 1016.0
20260903093843 76 129 0.0 1.7 0.00 0.09 0.00 94 1016.0
20260903093615 76 129 0.0 0.0 0.00 0.09 0.00 94 1015.9
20260903092842 76 129 0.0 1.7 0.00 0.09 0.00 94 1015.9
20260903092340 76 129 0.0 1.7 0.00 0.09 0.00 94 1015.9
20260903092111 77 129 0.0 1.7 0.00 0.09 0.00 94 1015.9
20260903091337 77 129 0.0 1.7 0.00 0.09 0.00 94 1015.9
20260903091106 77 129 0.0 1.7 0.00 0.09 0.00 94 1016.0
20260903090337 77 129 0.0 0.0 0.00 0.09 0.00 94 1015.9
20260903085836 77 129 0.0 0.0 0.00 0.09 0.00 94 1015.8
20260903085335 77 129 0.0 1.7 0.00 0.09 0.00 94 1015.9
20260903084834 77 129 0.0 1.7 0.00 0.09 0.00 94 1015.8
20260903084333 77 129 0.0 1.7 0.00 0.09 0.00 94 1015.8
20260903084329 77 129 0.0 1.7 0.00 0.09 0.00 94 1015.8
20260903083324 77 129 0.0 1.7 0.00 0.09 0.00 94 1015.7
20260903082822 77 129 0.0 1.7 0.00 0.09 0.00 94 1015.8
20260903082323 77 123 0.0 1.7 0.00 0.09 0.00 94 1015.7
20260903081819 77 123 0.9 1.7 0.00 0.09 0.00 94 1015.6
20260903081318 77 123 0.9 2.6 0.00 0.09 0.00 94 1015.7
20260903080819 77 123 0.9 2.6 0.00 0.09 0.00 94 1015.6
20260903080319 77 123 0.9 2.6 0.00 0.09 0.00 94 1015.6
20260903075816 77 123 0.9 2.6 0.00 0.09 0.00 94 1015.8
20260903075318 77 118 0.0 1.7 0.00 0.09 0.00 94 1015.9
20260903074811 77 120 0.0 1.7 0.00 0.09 0.00 94 1015.9
20260903074539 77 120 0.0 1.7 0.00 0.09 0.00 94 1015.9
20260903073807 77 120 0.0 0.0 0.00 0.09 0.00 94 1016.0
20260903073307 77 120 0.0 0.0 0.00 0.09 0.00 94 1015.9
20260903072807 77 120 0.0 0.0 0.00 0.09 0.00 94 1016.0
20260903072308 77 120 0.0 0.0 0.00 0.09 0.00 94 1015.9
20260903071802 77 120 0.0 0.0 0.00 0.09 0.00 93 1016.0
20260903071257 77 120 0.0 0.0 0.00 0.09 0.00 94 1016.0
20260903070757 77 120 0.0 0.0 0.00 0.09 0.00 94 1016.0
20260903070258 78 120 0.0 0.0 0.00 0.09 0.00 94 1016.1
20260903065757 78 120 0.0 0.0 0.00 0.09 0.00 93 1016.2
20260903065258 78 120 0.0 0.0 0.00 0.09 0.00 93 1016.1
20260903064253 78 120 0.0 0.0 0.00 0.09 0.00 93 1016.1
20260903063753 78 120 0.0 0.0 0.00 0.09 0.00 93 1016.1
20260903063526 78 120 0.0 0.0 0.00 0.09 0.00 93 1016.1
20260903063025 78 120 0.0 0.0 0.00 0.09 0.00 93 1016.2
20260903062253 78 120 0.0 0.0 0.00 0.09 0.00 93 1016.2
20260903061754 78 120 0.0 0.0 0.00 0.09 0.00 93 1016.3
20260903061521 78 120 0.0 0.0 0.00 0.09 0.00 93 1016.3
20260903060749 78 120 0.0 0.0 0.00 0.09 0.00 93 1016.4
20260903060249 78 120 0.0 0.0 0.00 0.09 0.00 93 1016.5
20260903055750 78 120 0.0 0.0 0.00 0.09 0.00 93 1016.5
20260903055249 78 120 0.0 0.0 0.00 0.09 0.00 93 1016.5
20260903054751 78 120 0.0 0.0 0.00 0.09 0.00 93 1016.6
20260903054245 78 120 0.0 0.9 0.00 0.09 0.00 93 1016.6
20260903053743 78 120 0.0 0.9 0.00 0.09 0.00 93 1016.6
20260903053242 78 120 0.0 0.0 0.00 0.09 0.00 93 1016.6
20260903052739 78 120 0.0 0.0 0.00 0.09 0.00 93 1016.6
20260903052240 78 120 0.0 1.7 0.00 0.09 0.00 93 1016.6
20260903051740 78 120 0.0 1.7 0.00 0.09 0.00 93 1016.6
20260903051241 78 120 0.9 1.7 0.00 0.09 0.00 93 1016.5
20260903050735 78 120 0.9 1.7 0.00 0.09 0.00 93 1016.6
20260903050236 78 120 0.9 2.6 0.00 0.09 0.00 93 1016.6
20260903045733 78 120 0.0 2.6 0.00 0.09 0.09 93 1016.7
20260903045233 78 120 0.9 3.5 0.00 0.09 0.09 93 1016.7
20260903044731 78 120 1.7 3.5 0.00 0.09 0.09 93 1016.8
20260903044231 78 125 1.7 2.6 0.00 0.09 0.09 93 1016.8
20260903043726 78 127 0.9 3.5 0.00 0.09 0.09 93 1016.8
20260903043226 78 112 1.7 3.5 0.00 0.09 0.09 93 1016.7
20260903042726 78 92 1.7 2.6 0.00 0.09 0.09 93 1016.8
20260903042227 78 92 0.9 1.7 0.00 0.09 0.09 93 1016.8
20260903041725 78 121 0.9 1.7 0.00 0.09 0.09 93 1016.9
20260903041224 78 88 0.0 1.7 0.00 0.09 0.09 93 1017.0
20260903040718 78 88 0.9 1.7 0.00 0.09 0.09 93 1017.0
20260903040217 78 88 0.9 1.7 0.00 0.09 0.09 93 1017.1
20260903035947 78 88 0.0 1.7 0.00 0.09 0.09 93 1017.1
20260903035449 78 88 0.9 1.7 0.00 0.09 0.09 93 1017.2
20260903034715 78 88 0.9 1.7 0.00 0.09 0.09 93 1017.1
20260903034214 78 88 0.9 1.7 0.00 0.09 0.09 93 1017.0
20260903033712 78 88 0.9 1.7 0.00 0.09 0.09 93 1017.1
20260903033445 79 88 0.0 1.7 0.00 0.09 0.09 92 1017.2
20260903032713 79 88 0.0 0.0 0.00 0.09 0.09 92 1017.2
20260903032211 79 88 0.0 0.0 0.00 0.09 0.09 92 1017.2
20260903031940 79 88 0.0 0.0 0.00 0.09 0.09 92 1017.2
20260903031208 79 88 0.0 0.0 0.00 0.09 0.09 92 1017.3
20260903030701 79 88 0.0 0.0 0.00 0.09 0.09 92 1017.2
20260903030201 79 88 0.0 0.0 0.00 0.09 0.09 92 1017.4
20260903025659 79 88 0.0 0.0 0.00 0.09 0.09 92 1017.3
20260903025156 79 88 0.0 0.0 0.00 0.09 0.09 92 1017.3
20260903024656 79 88 0.0 1.7 0.00 0.09 0.09 91 1017.2
20260903024150 79 88 0.0 1.7 0.00 0.09 0.09 91 1017.3
20260903023648 79 88 0.0 1.7 0.00 0.09 0.09 91 1017.2
20260903023147 79 88 0.0 0.0 0.00 0.09 0.09 91 1017.2
20260903022645 79 88 0.0 0.0 0.00 0.09 0.09 91 1017.2
20260903022144 79 88 0.0 0.0 0.00 0.09 0.09 91 1017.3
20260903021638 79 88 0.0 0.0 0.00 0.09 0.09 91 1017.2
20260903021137 80 88 0.0 0.9 0.00 0.09 0.09 91 1017.0
20260903020638 80 88 0.0 0.9 0.00 0.09 0.09 90 1016.8
20260903020133 80 88 0.0 1.7 0.00 0.09 0.09 90 1016.8
20260903015632 80 88 0.0 1.7 0.00 0.09 0.09 91 1016.6
20260903015127 80 88 0.0 1.7 0.00 0.09 0.09 90 1016.5
20260903014624 80 88 0.0 1.7 0.00 0.09 0.09 90 1016.4
20260903014122 80 87 0.0 1.7 0.00 0.09 0.09 90 1016.3
20260903013851 80 88 0.0 0.0 0.00 0.09 0.09 90 1016.2
20260903013121 80 88 0.0 0.0 0.00 0.09 0.09 89 1016.2
20260903012614 80 87 0.0 0.0 0.00 0.09 0.09 89 1015.9
20260903012114 80 87 0.0 0.0 0.00 0.09 0.09 89 1015.9
20260903011613 81 87 0.0 0.0 0.00 0.09 0.09 88 1015.9
20260903011115 81 87 0.0 0.0 0.00 0.09 0.09 88 1016.0
20260903010847 81 87 0.0 0.0 0.00 0.09 0.09 88 1015.9
20260903010116 81 87 0.0 0.0 0.00 0.09 0.09 88 1016.0
20260903005613 81 87 0.0 0.0 0.00 0.09 0.09 87 1015.9
20260903005341 81 87 0.0 0.9 0.00 0.09 0.09 87 1015.9
20260903004608 82 87 0.9 2.6 0.00 0.09 0.09 87 1016.0
20260903004105 82 87 1.7 2.6 0.00 0.09 0.09 86 1016.0
20260903003606 82 96 0.9 1.7 0.00 0.09 0.09 86 1015.9
20260903003338 82 96 0.0 1.7 0.00 0.09 0.09 86 1016.1
20260903002559 82 96 0.0 1.7 0.00 0.09 0.09 85 1016.2
20260903002058 83 96 0.0 1.7 0.00 0.09 0.09 85 1016.1
20260903001556 83 120 0.0 1.7 0.00 0.09 0.09 84 1016.1
20260903000554 83 120 0.0 1.7 0.00 0.09 0.09 83 1016.1
20260903000047 83 120 0.0 1.7 0.00 0.09 0.09 82 1016.0
20260902235817 83 120 0.0 1.7 0.00 0.09 0.09 82 1016.2
20260902235317 83 120 0.0 1.7 0.00 0.09 0.09 82 1016.1
20260902234817 83 120 0.0 1.7 0.00 0.09 0.09 82 1016.0
20260902234044 84 120 0.0 1.7 0.00 0.09 0.09 82 1016.1
20260902233544 84 120 0.0 2.6 0.00 0.09 0.09 82 1016.1
20260902233042 84 120 0.0 2.6 0.00 0.09 0.09 81 1016.2
20260902232536 84 120 0.9 3.5 0.00 0.09 0.09 81 1016.1
20260902232031 84 156 0.9 3.5 0.00 0.09 0.09 81 1016.1
20260902231533 84 147 0.9 1.7 0.00 0.09 0.09 80 1016.2
20260902231032 84 147 0.9 2.6 0.00 0.09 0.09 80 1016.3
20260902230531 84 148 0.9 2.6 0.00 0.09 0.09 79 1016.2
20260902230032 84 147 0.9 2.6 0.00 0.09 0.09 79 1016.2
20260902225532 84 126 0.9 2.6 0.00 0.09 0.09 80 1016.3
20260902225259 84 170 0.9 1.7 0.00 0.09 0.09 79 1016.1
20260902224527 85 169 0.9 2.6 0.00 0.09 0.09 79 1016.2
20260902224028 85 164 0.9 3.5 0.00 0.09 0.09 78 1016.3
20260902223528 85 160 0.9 3.5 0.00 0.09 0.09 78 1016.1
20260902223027 85 119 0.9 3.5 0.00 0.09 0.09 78 1016.2
20260902222529 85 91 1.7 3.5 0.00 0.09 0.09 77 1016.3
20260902222028 85 115 1.7 3.5 0.00 0.09 0.09 76 1016.2
20260902221527 85 133 0.9 4.3 0.00 0.09 0.09 76 1016.2
20260902221027 85 146 0.0 4.3 0.00 0.09 0.09 76 1016.3
20260902220528 85 155 0.0 1.7 0.00 0.09 0.09 77 1016.2
20260902220028 85 155 0.0 1.7 0.00 0.09 0.09 76 1016.4
20260902215526 85 156 0.0 1.7 0.00 0.09 0.09 75 1016.4
20260902215025 85 156 0.0 1.7 0.00 0.09 0.09 76 1016.5
20260902214522 85 156 0.0 1.7 0.00 0.09 0.09 77 1016.5
20260902214020 85 156 0.0 1.7 0.00 0.09 0.09 77 1016.6
20260902213519 85 249 0.0 1.7 0.00 0.09 0.09 75 1016.7
20260902213020 84 249 0.0 1.7 0.00 0.09 0.09 78 1016.7
20260902212521 84 249 0.0 1.7 0.00 0.10 0.09 77 1016.8
20260902212245 84 249 0.0 2.6 0.00 0.10 0.09 78 1016.8
20260902211510 84 249 0.0 2.6 0.00 0.10 0.09 79 1016.7
20260902211010 83 273 0.0 1.7 0.00 0.10 0.09 79 1016.8
20260902210508 83 273 0.0 1.7 0.00 0.10 0.09 79 1016.9
20260902210016 83 274 0.0 1.7 0.00 0.10 0.09 80 1016.9
20260902205502 83 267 0.0 1.7 0.00 0.10 0.09 79 1017.0
20260902205000 83 267 0.0 1.7 0.00 0.10 0.09 80 1017.0
20260902204457 83 252 0.0 0.9 0.00 0.10 0.09 82 1017.0
20260902203956 83 220 0.0 0.0 0.00 0.10 0.09 81 1017.0
20260902203457 83 219 0.0 0.0 0.00 0.10 0.09 81 1017.1
20260902202958 83 220 0.0 0.0 0.00 0.10 0.09 81 1017.2
20260902202451 83 219 0.0 1.7 0.00 0.10 0.09 81 1017.4
20260902201952 83 220 0.0 1.7 0.00 0.10 0.09 81 1017.4
20260902201723 83 220 0.0 1.7 0.00 0.10 0.09 80 1017.3
20260902200952 83 219 0.0 1.7 0.00 0.10 0.09 80 1017.3
20260902200724 83 205 0.0 1.7 0.00 0.10 0.09 78 1017.4
20260902195951 83 267 0.0 1.7 0.00 0.10 0.09 78 1017.4
20260902195722 83 267 0.9 1.7 0.00 0.10 0.09 79 1017.3
20260902194948 83 261 0.0 1.7 0.00 0.10 0.09 80 1017.2
20260902194448 84 261 0.0 1.7 0.00 0.10 0.09 80 1017.3
20260902193948 84 207 0.0 1.7 0.00 0.10 0.09 78 1017.4
20260902193446 84 231 0.0 4.3 0.00 0.10 0.09 78 1017.5
20260902192945 84 136 0.0 4.3 0.00 0.10 0.09 79 1017.7
20260902192439 84 202 0.0 2.6 0.00 0.10 0.09 80 1017.8
20260902191938 84 217 0.0 1.7 0.00 0.10 0.09 80 1017.8
20260902191710 84 207 0.0 2.6 0.00 0.10 0.09 79 1017.7
20260902190939 84 164 1.7 7.8 0.00 0.10 0.09 78 1017.7
20260902190712 84 181 1.7 7.8 0.00 0.10 0.09 77 1017.7
20260902185941 84 216 0.9 6.1 0.00 0.10 0.09 77 1017.7
20260902185433 85 150 2.6 10.4 0.00 0.10 0.09 78 1017.8
20260902185207 85 212 2.6 10.4 0.00 0.10 0.09 76 1017.9
20260902184433 85 190 1.7 6.1 0.00 0.10 0.09 77 1018.0
20260902183933 85 173 2.6 8.7 0.00 0.10 0.09 79 1018.0
20260902183433 85 143 3.5 8.7 0.00 0.10 0.09 79 1017.7
20260902182934 85 158 3.5 10.4 0.00 0.10 0.09 80 1017.6
20260902182431 85 161 2.6 10.4 0.00 0.10 0.09 81 1017.6
20260902182202 84 149 1.7 6.1 0.00 0.10 0.09 82 1017.7
20260902182052 83 140 0.9 5.2 0.01 0.10 0.09 83 1017.5
20260902180929 82 128 0.9 3.5 0.05 0.10 0.09 85 1017.6
20260902180428 81 120 0.9 3.5 0.07 0.10 0.09 85 1017.7
20260902175927 81 140 0.9 1.7 0.07 0.10 0.09 88 1017.8
20260902175421 80 188 0.9 1.7 0.07 0.10 0.09 89 1018.0
20260902174919 80 80 0.9 2.6 0.09 0.10 0.09 87 1018.1
20260902174418 79 80 1.7 2.6 0.09 0.10 0.09 87 1018.1
20260902173916 79 79 1.7 3.5 0.09 0.10 0.09 87 1018.1
20260902173415 79 75 1.7 3.5 0.09 0.10 0.09 89 1018.1
20260902172913 79 79 2.6 4.3 0.09 0.10 0.09 87 1018.1
20260902172642 78 96 4.3 12.2 0.09 0.11 0.09 87 1018.0
20260902171910 78 93 7.0 12.2 0.09 0.11 0.09 86 1018.3
20260902171410 79 92 7.8 13.0 0.08 0.11 0.08 85 1018.3
20260902170910 80 114 8.7 14.8 0.04 0.08 0.05 84 1018.5
20260902170411 81 132 8.7 16.5 0.02 0.06 0.02 80 1018.5
20260902165902 83 107 7.8 16.5 0.02 0.06 0.02 82 1018.4
20260902165404 85 146 6.1 15.6 0.02 0.06 0.02 79 1018.4
20260902165134 87 134 5.2 12.2 0.00 0.04 0.00 72 1018.6
20260902164404 89 132 3.5 9.6 0.00 0.04 0.00 70 1018.5
20260902163903 90 136 3.5 8.7 0.00 0.04 0.00 71 1018.4
20260902163404 90 110 3.5 8.7 0.00 0.04 0.00 70 1018.5
20260902162901 90 114 3.5 8.7 0.00 0.04 0.00 73 1018.6
20260902162632 90 132 3.5 8.7 0.00 0.04 0.00 72 1018.7
20260902161858 90 84 3.5 8.7 0.00 0.04 0.00 72 1018.7
20260902161358 90 98 2.6 6.1 0.00 0.04 0.00 73 1018.6
20260902160857 89 153 3.5 7.0 0.00 0.04 0.00 74 1018.7
20260902160630 89 112 2.6 7.0 0.00 0.04 0.00 74 1018.6
20260902155850 89 106 2.6 9.6 0.00 0.04 0.00 75 1018.7
20260902155352 89 132 3.5 9.6 0.00 0.10 0.00 74 1018.6
20260902155122 89 113 4.3 9.6 0.00 0.24 0.00 75 1018.7
20260902154351 89 142 3.5 9.6 0.00 0.49 0.00 74 1018.6
20260902153850 89 144 1.7 7.8 0.00 0.68 0.00 74 1018.5
20260902153352 89 165 2.6 7.8 0.00 0.73 0.00 75 1018.5
20260902152845 88 141 2.6 7.8 0.00 0.73 0.00 80 1018.5
20260902152344 88 110 2.6 7.8 0.00 0.74 0.00 80 1018.6
20260902151844 87 140 3.5 8.7 0.00 0.76 0.00 81 1018.6
20260902151344 87 143 3.5 8.7 0.00 0.76 0.00 80 1018.6
20260902150845 87 122 3.5 7.8 0.00 0.77 0.00 80 1018.6
20260902150346 87 144 3.5 7.8 0.00 0.77 0.00 81 1018.6
20260902145840 86 128 3.5 7.0 0.00 0.77 0.00 82 1018.6
20260902145342 86 122 3.5 7.0 0.00 0.77 0.00 83 1018.6
20260902144842 86 140 2.6 7.0 0.00 0.77 0.00 82 1018.5
20260902144340 86 135 2.6 6.1 0.00 0.77 0.00 83 1018.5
20260902143841 86 114 2.6 5.2 0.00 0.77 0.00 83 1018.5
20260902143341 85 116 1.7 5.2 0.00 0.77 0.00 85 1018.4
20260902143106 85 84 2.6 7.0 0.00 0.77 0.00 86 1018.4
20260902142334 85 144 3.5 7.0 0.00 0.77 0.00 86 1018.4
20260902141836 84 130 2.6 6.1 0.00 0.77 0.00 86 1018.4
20260902141605 84 83 2.6 6.1 0.00 0.77 0.00 87 1018.3
20260902140835 83 84 2.6 6.1 0.00 0.77 0.00 88 1018.3
20260902140333 83 109 3.5 6.1 0.00 0.77 0.00 88 1018.4
20260902135834 83 104 2.6 6.1 0.00 0.77 0.00 89 1018.4
20260902135605 82 160 2.6 5.2 0.00 0.77 0.00 89 1018.3
20260902134835 82 137 2.6 7.0 0.00 0.77 0.00 90 1018.4
20260902134335 82 88 3.5 7.0 0.00 0.77 0.00 91 1018.4
20260902133831 81 84 4.3 7.8 0.00 0.77 0.00 90 1018.3
20260902133331 81 106 3.5 7.8 0.00 0.77 0.00 91 1018.3
20260902132831 81 86 3.5 7.0 0.00 0.77 0.00 92 1018.3
20260902132331 80 77 3.5 6.1 0.00 0.77 0.00 92 1018.2
20260902131830 80 109 2.6 7.0 0.00 0.77 0.00 93 1018.0
20260902131328 80 103 2.6 6.1 0.00 0.77 0.00 94 1018.1
20260902130824 79 105 2.6 7.0 0.00 0.77 0.00 95 1018.0
20260902130324 79 147 2.6 6.1 0.00 0.77 0.00 95 1018.0
20260902125824 78 129 2.6 3.5 0.00 0.77 0.00 95 1018.0
20260902125558 78 106 1.7 5.2 0.00 0.77 0.00 95 1018.0
20260902125053 78 103 1.7 5.2 0.00 0.77 0.00 95 1017.9
20260902124324 78 102 1.7 5.2 0.00 0.77 0.00 95 1017.9
20260902123821 78 100 1.7 3.5 0.00 0.77 0.00 95 1017.9
20260902123318 77 101 1.7 3.5 0.00 0.77 0.00 95 1017.9
20260902122818 77 88 1.7 3.5 0.00 0.77 0.00 95 1017.8
20260902122319 77 92 0.9 2.6 0.00 0.77 0.00 95 1017.7
20260902121817 77 78 1.7 2.6 0.00 0.77 0.00 95 1017.5
20260902121316 77 95 0.9 3.5 0.00 0.77 0.00 95 1017.4
20260902120811 77 109 0.9 3.5 0.00 0.77 0.00 95 1017.3
20260902120312 77 126 0.9 3.5 0.00 0.77 0.00 95 1017.3